06-01-2023, 00:00:05,    214,    1.9,    9.2,   0.00,   0.00, 1008.4,   85.3, -999.0
06-01-2023, 00:00:15,    242,    4.3,    9.2,   0.00,   0.00, 1008.4,   85.3, -999.0
06-01-2023, 00:00:25,    178,    1.7,    9.2,   0.00,   0.00, 1008.4,   85.3, -999.0
06-01-2023, 00:00:35,    220,    2.5,    9.3,   0.00,   0.00, 1008.5,   85.3, -999.0
06-01-2023, 00:00:45,    238,    3.6,    9.3,   0.00,   0.00, 1008.5,   85.3, -999.0
06-01-2023, 00:00:55,    172,    3.1,    9.3,   0.00,   0.00, 1008.5,   85.3, -999.0
06-01-2023, 00:01:05,    200,    2.0,    9.3,   0.00,   0.00, 1008.4,   85.2, -999.0
06-01-2023, 00:01:15,    234,    3.1,    9.3,   0.00,   0.00, 1008.4,   85.1, -999.0
06-01-2023, 00:01:25,    147,    5.1,    9.3,   0.00,   0.00, 1008.4,   84.9, -999.0
06-01-2023, 00:01:35,    245,    4.3,    9.3,   0.00,   0.00, 1008.4,   84.7, -999.0
06-01-2023, 00:01:45,    218,    4.5,    9.3,   0.00,   0.00, 1008.4,   84.7, -999.0
06-01-2023, 00:01:55,    212,    3.4,    9.2,   0.00,   0.00, 1008.4,   84.5, -999.0
06-01-2023, 00:02:05,    158,    2.6,    9.2,   0.00,   0.00, 1008.5,   84.4, -999.0
06-01-2023, 00:02:15,    239,    2.0,    9.3,   0.00,   0.00, 1008.4,   84.4, -999.0
06-01-2023, 00:02:25,    222,    1.4,    9.3,   0.00,   0.01, 1008.4,   84.4, -999.0
06-01-2023, 00:02:35,    214,    0.7,    9.3,   0.00,   0.00, 1008.4,   84.4, -999.0
06-01-2023, 00:02:45,    217,    1.6,    9.2,   0.00,   0.00, 1008.4,   84.5, -999.0
06-01-2023, 00:02:55,    196,    4.9,    9.2,   0.00,   0.00, 1008.4,   84.6, -999.0
06-01-2023, 00:03:05,    213,    4.2,    9.3,   0.00,   0.00, 1008.4,   84.6, -999.0
06-01-2023, 00:03:15,    216,    3.5,    9.3,   0.00,   0.00, 1008.5,   84.7, -999.0
06-01-2023, 00:03:25,    200,    5.3,    9.2,   0.00,   0.00, 1008.5,   84.7, -999.0
06-01-2023, 00:03:35,    193,    2.7,    9.3,   0.00,   0.01, 1008.4,   84.8, -999.0
06-01-2023, 00:03:45,    192,    1.7,    9.2,   0.00,   0.00, 1008.4,   84.7, -999.0
06-01-2023, 00:03:55,    208,    2.5,    9.2,   0.00,   0.00, 1008.5,   84.9, -999.0
06-01-2023, 00:04:05,    187,    4.1,    9.1,   0.00,   0.00, 1008.4,   84.9, -999.0
06-01-2023, 00:04:15,    172,    2.4,    9.1,   0.00,   0.00, 1008.4,   84.9, -999.0
06-01-2023, 00:04:25,    176,    0.3,    9.2,   0.00,   0.00, 1008.4,   84.8, -999.0
06-01-2023, 00:04:35,    186,    0.4,    9.1,   0.00,   0.00, 1008.4,   85.1, -999.0
06-01-2023, 00:04:44,    217,    2.0,    9.2,   0.00,   0.01, 1008.5,   85.3, -999.0
06-01-2023, 00:04:55,    282,    1.0,    9.2,   0.00,   0.00, 1008.4,   85.4, -999.0
06-01-2023, 00:05:05,    187,    1.3,    9.2,   0.00,   0.00, 1008.4,   85.6, -999.0
06-01-2023, 00:05:15,    216,    2.6,    9.2,   0.00,   0.00, 1008.5,   85.8, -999.0
06-01-2023, 00:05:24,    183,    1.9,    9.2,   0.00,   0.00, 1008.4,   85.7, -999.0
06-01-2023, 00:05:35,    211,    3.6,    9.1,   0.00,   0.01, 1008.4,   85.7, -999.0
06-01-2023, 00:05:45,    170,    2.5,    9.1,   0.00,   0.00, 1008.4,   85.7, -999.0
06-01-2023, 00:05:54,    237,    0.8,    9.1,   0.00,   0.00, 1008.4,   85.7, -999.0
06-01-2023, 00:06:04,    157,    0.3,    9.1,   0.00,   0.00, 1008.4,   85.7, -999.0
06-01-2023, 00:06:15,    214,    3.7,    9.2,   0.00,   0.00, 1008.4,   86.0, -999.0
06-01-2023, 00:06:24,    223,    1.8,    9.1,   0.00,   0.00, 1008.5,   86.0, -999.0
06-01-2023, 00:06:34,    199,    1.6,    9.2,   0.00,   0.01, 1008.4,   86.1, -999.0
06-01-2023, 00:06:45,    183,    1.1,    9.2,   0.00,   0.00, 1008.4,   86.2, -999.0
06-01-2023, 00:06:54,    225,    1.2,    9.2,   0.00,   0.00, 1008.4,   86.3, -999.0
06-01-2023, 00:07:04,    207,    1.4,    9.2,   0.00,   0.00, 1008.4,   86.3, -999.0
06-01-2023, 00:07:14,    138,    0.2,    9.1,   0.00,   0.00, 1008.4,   86.3, -999.0
06-01-2023, 00:07:25,    140,    1.9,    9.1,   0.00,   0.00, 1008.4,   86.4, -999.0
06-01-2023, 00:07:34,    136,    2.8,    9.2,   0.00,   0.00, 1008.4,   86.3, -999.0
06-01-2023, 00:07:44,    186,    0.8,    9.2,   0.00,   0.00, 1008.4,   86.2, -999.0
06-01-2023, 00:07:54,    185,    1.0,    9.2,   0.00,   0.00, 1008.5,   86.4, -999.0
06-01-2023, 00:08:04,    253,    1.9,    9.2,   0.00,   0.00, 1008.4,   86.6, -999.0
06-01-2023, 00:08:14,    178,    2.9,    9.2,   0.00,   0.00, 1008.4,   86.6, -999.0
06-01-2023, 00:08:24,    193,    3.3,    9.1,   0.00,   0.00, 1008.5,   86.6, -999.0
06-01-2023, 00:08:34,    249,    5.7,    9.1,   0.00,   0.00, 1008.4,   86.4, -999.0
06-01-2023, 00:08:44,    175,    3.5,    9.2,   0.00,   0.00, 1008.4,   86.4, -999.0
06-01-2023, 00:08:54,    254,    3.9,    9.1,   0.00,   0.01, 1008.5,   86.4, -999.0
06-01-2023, 00:09:04,    249,    0.8,    9.2,   0.00,   0.00, 1008.4,   86.3, -999.0
06-01-2023, 00:09:14,    220,    0.3,    9.1,   0.00,   0.00, 1008.4,   86.5, -999.0
06-01-2023, 00:09:24,    235,    0.8,    9.1,   0.00,   0.00, 1008.4,   86.7, -999.0
06-01-2023, 00:09:34,    234,    0.5,    9.2,   0.00,   0.00, 1008.4,   86.8, -999.0
06-01-2023, 00:09:44,    205,    0.2,    9.3,   0.00,   0.00, 1008.4,   86.9, -999.0
06-01-2023, 00:09:54,    196,    0.4,    9.1,   0.00,   0.00, 1008.4,   87.0, -999.0
06-01-2023, 00:10:04,    223,    0.9,    9.1,   0.00,   0.00, 1008.4,   87.1, -999.0
06-01-2023, 00:10:14,    157,    1.3,    9.1,   0.00,   0.00, 1008.4,   87.2, -999.0
06-01-2023, 00:10:24,    224,    1.7,    9.2,   0.00,   0.00, 1008.4,   87.2, -999.0
06-01-2023, 00:10:34,    195,    1.8,    9.1,   0.00,   0.00, 1008.4,   87.3, -999.0
06-01-2023, 00:10:44,    178,    1.7,    9.1,   0.00,   0.00, 1008.4,   87.3, -999.0
06-01-2023, 00:10:54,    144,    1.2,    9.1,   0.00,   0.00, 1008.4,   87.4, -999.0
06-01-2023, 00:11:04,    228,    3.5,    9.1,   0.00,   0.00, 1008.4,   87.5, -999.0
06-01-2023, 00:11:14,    235,    1.4,    9.0,   0.00,   0.00, 1008.4,   87.5, -999.0
06-01-2023, 00:11:24,    212,    3.0,    9.1,   0.00,   0.00, 1008.4,   87.5, -999.0
06-01-2023, 00:11:34,    209,    3.1,    9.1,   0.00,   0.00, 1008.4,   87.5, -999.0
06-01-2023, 00:11:44,    218,    2.9,    9.1,   0.00,   0.00, 1008.4,   87.4, -999.0
06-01-2023, 00:11:54,    185,    1.8,    9.1,   0.00,   0.00, 1008.4,   87.3, -999.0
06-01-2023, 00:12:04,    151,    1.2,    9.1,   0.00,   0.00, 1008.4,   87.4, -999.0
06-01-2023, 00:12:14,    202,    3.2,    9.1,   0.00,   0.00, 1008.4,   87.3, -999.0
06-01-2023, 00:12:23,    195,    3.1,    9.1,   0.00,   0.00, 1008.4,   87.2, -999.0
06-01-2023, 00:12:34,    182,    2.8,    9.0,   0.00,   0.00, 1008.4,   87.3, -999.0
06-01-2023, 00:12:44,    209,    3.1,    9.1,   0.00,   0.00, 1008.3,   87.2, -999.0
06-01-2023, 00:12:54,    240,    1.1,    9.1,   0.00,   0.00, 1008.4,   87.0, -999.0
06-01-2023, 00:13:04,    211,    3.2,    9.1,   0.00,   0.00, 1008.4,   87.0, -999.0
06-01-2023, 00:13:14,    254,    2.8,    9.1,   0.00,   0.00, 1008.4,   87.0, -999.0
06-01-2023, 00:13:24,    214,    3.9,    9.1,   0.00,   0.00, 1008.4,   87.0, -999.0
06-01-2023, 00:13:33,    217,    2.3,    9.1,   0.00,   0.00, 1008.4,   87.1, -999.0
06-01-2023, 00:13:44,    236,    5.0,    9.1,   0.00,   0.00, 1008.4,   87.1, -999.0
06-01-2023, 00:13:54,    192,    3.0,    9.2,   0.00,   0.00, 1008.4,   87.0, -999.0
06-01-2023, 00:14:03,    207,    3.3,    9.2,   0.00,   0.00, 1008.4,   86.8, -999.0
06-01-2023, 00:14:13,    244,    2.3,    9.1,   0.00,   0.00, 1008.4,   86.9, -999.0
06-01-2023, 00:14:24,    243,    0.9,    9.1,   0.00,   0.00, 1008.4,   87.1, -999.0
06-01-2023, 00:14:34,    220,    1.5,    9.1,   0.00,   0.00, 1008.4,   87.1, -999.0
06-01-2023, 00:14:43,    134,    0.3,    9.1,   0.00,   0.00, 1008.4,   87.4, -999.0
06-01-2023, 00:14:53,    240,    2.1,    9.1,   0.00,   0.00, 1008.4,   87.6, -999.0
06-01-2023, 00:15:04,    201,    2.5,    9.1,   0.00,   0.00, 1008.4,   87.4, -999.0
06-01-2023, 00:15:13,    207,    3.2,    9.1,   0.00,   0.00, 1008.4,   87.2, -999.0
06-01-2023, 00:15:23,    215,    5.5,    9.1,   0.00,   0.00, 1008.3,   87.1, -999.0
06-01-2023, 00:15:33,    186,    3.8,    9.1,   0.00,   0.00, 1008.4,   87.0, -999.0
06-01-2023, 00:15:43,    221,    3.4,    9.1,   0.00,   0.00, 1008.4,   86.9, -999.0
06-01-2023, 00:15:53,    171,    4.6,    9.1,   0.00,   0.00, 1008.3,   86.8, -999.0
06-01-2023, 00:16:03,    186,    3.5,    9.2,   0.00,   0.00, 1008.3,   86.6, -999.0
06-01-2023, 00:16:13,    136,    2.1,    9.2,   0.00,   0.00, 1008.3,   86.6, -999.0
06-01-2023, 00:16:23,    223,    2.6,    9.2,   0.00,   0.00, 1008.4,   86.6, -999.0
06-01-2023, 00:16:33,    196,    3.3,    9.2,   0.00,   0.00, 1008.4,   86.6, -999.0
06-01-2023, 00:16:43,    192,    4.2,    9.2,   0.00,   0.00, 1008.4,   86.6, -999.0
06-01-2023, 00:16:53,    154,    2.4,    9.2,   0.00,   0.00, 1008.3,   86.5, -999.0
06-01-2023, 00:17:03,    197,    1.5,    9.2,   0.00,   0.00, 1008.4,   86.4, -999.0
06-01-2023, 00:17:13,    191,    1.9,    9.2,   0.00,   0.01, 1008.4,   86.5, -999.0
06-01-2023, 00:17:23,    267,    4.3,    9.2,   0.00,   0.00, 1008.3,   86.5, -999.0
06-01-2023, 00:17:33,    168,    1.3,    9.2,   0.00,   0.00, 1008.4,   86.6, -999.0
06-01-2023, 00:17:43,    145,    2.0,    9.2,   0.00,   0.00, 1008.3,   86.6, -999.0
06-01-2023, 00:17:53,    215,    1.4,    9.2,   0.00,   0.00, 1008.3,   86.6, -999.0
06-01-2023, 00:18:03,    179,    1.8,    9.2,   0.00,   0.00, 1008.4,   86.7, -999.0
06-01-2023, 00:18:13,    201,    2.2,    9.2,   0.00,   0.00, 1008.4,   86.7, -999.0
06-01-2023, 00:18:23,    199,    1.6,    9.1,   0.00,   0.00, 1008.4,   86.8, -999.0
06-01-2023, 00:18:33,    206,    2.1,    9.1,   0.00,   0.00, 1008.4,   87.0, -999.0
06-01-2023, 00:18:43,    167,    2.4,    9.1,   0.00,   0.00, 1008.4,   87.1, -999.0
06-01-2023, 00:18:53,    215,    3.2,    9.2,   0.00,   0.00, 1008.3,   87.1, -999.0
06-01-2023, 00:19:03,    193,    3.1,    9.2,   0.00,   0.00, 1008.4,   87.1, -999.0
06-01-2023, 00:19:13,    160,    3.5,    9.2,   0.00,   0.00, 1008.4,   86.9, -999.0
06-01-2023, 00:19:23,    230,    3.3,    9.1,   0.00,   0.00, 1008.4,   86.8, -999.0
06-01-2023, 00:19:33,    196,    2.6,    9.1,   0.00,   0.00, 1008.3,   86.8, -999.0
06-01-2023, 00:19:43,    211,    1.9,    9.2,   0.00,   0.00, 1008.3,   86.8, -999.0
06-01-2023, 00:19:53,    205,    1.3,    9.2,   0.00,   0.00, 1008.3,   86.6, -999.0
06-01-2023, 00:20:02,    209,    6.3,    9.2,   0.00,   0.00, 1008.3,   86.7, -999.0
06-01-2023, 00:20:13,    164,    4.8,    9.2,   0.00,   0.00, 1008.3,   86.4, -999.0
06-01-2023, 00:20:23,    219,    3.4,    9.2,   0.00,   0.00, 1008.4,   86.2, -999.0
06-01-2023, 00:20:33,    218,    3.3,    9.2,   0.00,   0.00, 1008.3,   86.1, -999.0
06-01-2023, 00:20:42,    199,    2.9,    9.2,   0.00,   0.00, 1008.3,   85.9, -999.0
06-01-2023, 00:20:53,    192,    4.2,    9.3,   0.00,   0.00, 1008.4,   85.8, -999.0
06-01-2023, 00:21:03,    231,    4.6,    9.3,   0.00,   0.00, 1008.4,   85.8, -999.0
06-01-2023, 00:21:12,    200,    4.8,    9.2,   0.00,   0.00, 1008.4,   85.7, -999.0
06-01-2023, 00:21:23,    174,    3.0,    9.3,   0.00,   0.00, 1008.4,   85.8, -999.0
06-01-2023, 00:21:33,    262,    0.2,    9.2,   0.00,   0.00, 1008.4,   85.6, -999.0
06-01-2023, 00:21:42,    218,    4.4,    9.3,   0.00,   0.00, 1008.4,   85.8, -999.0
06-01-2023, 00:21:52,    195,    5.8,    9.1,   0.00,   0.00, 1008.4,   85.7, -999.0
06-01-2023, 00:22:03,    191,    2.7,    9.3,   0.00,   0.00, 1008.4,   85.8, -999.0
06-01-2023, 00:22:13,    157,    2.7,    9.2,   0.00,   0.00, 1008.4,   85.9, -999.0
06-01-2023, 00:22:22,    182,    1.5,    9.2,   0.00,   0.00, 1008.4,   86.1, -999.0
06-01-2023, 00:22:32,    220,    3.2,    9.2,   0.00,   0.00, 1008.4,   86.2, -999.0
06-01-2023, 00:22:43,    230,    3.6,    9.2,   0.00,   0.01, 1008.4,   86.2, -999.0
06-01-2023, 00:22:52,    227,    3.2,    9.2,   0.00,   0.00, 1008.4,   86.3, -999.0
06-01-2023, 00:23:02,    244,    3.0,    9.1,   0.00,   0.00, 1008.4,   86.4, -999.0
06-01-2023, 00:23:12,    173,    0.7,    9.2,   0.00,   0.00, 1008.4,   86.6, -999.0
06-01-2023, 00:23:22,    197,    0.0,    9.1,   0.00,   0.00, 1008.3,   86.5, -999.0
06-01-2023, 00:23:32,    247,    3.2,    9.2,   0.00,   0.00, 1008.4,   86.9, -999.0
06-01-2023, 00:23:42,    191,    3.9,    9.1,   0.00,   0.00, 1008.4,   87.0, -999.0
06-01-2023, 00:23:52,    200,    3.8,    9.2,   0.00,   0.00, 1008.4,   86.8, -999.0
06-01-2023, 00:24:02,    223,    2.7,    9.2,   0.00,   0.01, 1008.4,   86.7, -999.0
06-01-2023, 00:24:12,    244,    0.7,    9.2,   0.00,   0.00, 1008.4,   86.7, -999.0
06-01-2023, 00:24:22,    186,    1.9,    9.2,   0.00,   0.00, 1008.4,   86.8, -999.0
06-01-2023, 00:24:32,    180,    1.2,    9.1,   0.00,   0.00, 1008.4,   86.8, -999.0
06-01-2023, 00:24:42,    203,    2.3,    9.2,   0.00,   0.00, 1008.4,   87.1, -999.0
06-01-2023, 00:24:52,    219,    1.8,    9.2,   0.00,   0.00, 1008.3,   87.2, -999.0
06-01-2023, 00:25:02,    224,    1.8,    9.2,   0.00,   0.00, 1008.4,   87.2, -999.0
06-01-2023, 00:25:12,    296,    0.6,    9.2,   0.00,   0.01, 1008.3,   87.4, -999.0
06-01-2023, 00:25:22,    261,    2.1,    9.1,   0.00,   0.00, 1008.4,   87.7, -999.0
06-01-2023, 00:25:32,    220,    2.7,    9.2,   0.00,   0.00, 1008.4,   87.7, -999.0
06-01-2023, 00:25:42,    244,    2.9,    9.1,   0.00,   0.00, 1008.4,   88.0, -999.0
06-01-2023, 00:25:52,    217,    2.3,    9.1,   0.00,   0.00, 1008.4,   88.0, -999.0
06-01-2023, 00:26:02,    114,    3.1,    9.2,   0.00,   0.00, 1008.4,   88.1, -999.0
06-01-2023, 00:26:12,    169,    3.1,    9.1,   0.00,   0.00, 1008.5,   88.2, -999.0
06-01-2023, 00:26:22,    179,    3.0,    9.2,   0.00,   0.01, 1008.5,   88.0, -999.0
06-01-2023, 00:26:32,    208,    2.9,    9.2,   0.00,   0.00, 1008.5,   87.8, -999.0
06-01-2023, 00:26:42,    203,    3.0,    9.1,   0.00,   0.00, 1008.5,   87.7, -999.0
06-01-2023, 00:26:52,    211,    1.8,    9.2,   0.00,   0.00, 1008.6,   87.8, -999.0
06-01-2023, 00:27:02,    288,    1.8,    9.2,   0.00,   0.00, 1008.6,   88.0, -999.0
06-01-2023, 00:27:12,    225,    1.8,    9.1,   0.00,   0.00, 1008.5,   88.2, -999.0
06-01-2023, 00:27:22,    186,    2.2,    9.2,   0.00,   0.00, 1008.6,   88.3, -999.0
06-01-2023, 00:27:32,    228,    4.9,    9.2,   0.00,   0.00, 1008.6,   88.4, -999.0
06-01-2023, 00:27:42,    263,    5.8,    9.1,   0.00,   0.01, 1008.6,   88.0, -999.0
06-01-2023, 00:27:52,    241,    3.7,    9.2,   0.00,   0.00, 1008.6,   87.7, -999.0
06-01-2023, 00:28:02,    228,    1.7,    9.2,   0.00,   0.00, 1008.6,   87.7, -999.0
06-01-2023, 00:28:12,    256,    5.2,    9.2,   0.00,   0.00, 1008.6,   87.7, -999.0
06-01-2023, 00:28:22,    224,    3.0,    9.2,   0.00,   0.00, 1008.5,   87.7, -999.0
06-01-2023, 00:28:32,    234,    4.5,    9.1,   0.00,   0.01, 1008.6,   87.6, -999.0
06-01-2023, 00:28:42,    205,    3.3,    9.2,   0.00,   0.00, 1008.6,   87.6, -999.0
06-01-2023, 00:28:51,    199,    3.0,    9.2,   0.00,   0.01, 1008.6,   87.7, -999.0
06-01-2023, 00:29:02,    244,    2.6,    9.2,   0.00,   0.00, 1008.7,   87.9, -999.0
06-01-2023, 00:29:12,    224,    4.2,    9.2,   0.00,   0.01, 1008.6,   88.0, -999.0
06-01-2023, 00:29:21,    247,    4.0,    9.2,   0.00,   0.00, 1008.7,   87.9, -999.0
06-01-2023, 00:29:31,    252,    6.1,    9.2,   0.00,   0.01, 1008.7,   88.2, -999.0
06-01-2023, 00:29:42,    226,    5.1,    9.2,   0.00,   0.01, 1008.7,   88.1, -999.0
06-01-2023, 00:29:52,    244,    4.8,    9.2,   0.00,   0.00, 1008.7,   88.1, -999.0
06-01-2023, 00:30:01,    228,    2.7,    9.2,   0.00,   0.01, 1008.7,   88.2, -999.0
06-01-2023, 00:30:11,    238,    3.2,    9.2,   0.00,   0.00, 1008.7,   88.5, -999.0
06-01-2023, 00:30:22,    199,    5.0,    9.0,   0.00,   0.01, 1008.7,   88.8, -999.0
06-01-2023, 00:30:31,    249,    8.3,    9.1,   0.00,   0.00, 1008.7,   88.7, -999.0
06-01-2023, 00:30:41,    168,    3.1,    9.2,   0.00,   0.01, 1008.7,   88.6, -999.0
06-01-2023, 00:30:52,    220,    5.9,    9.1,   0.00,   0.00, 1008.7,   89.0, -999.0
06-01-2023, 00:31:01,    204,    4.4,    9.1,   0.00,   0.01, 1008.6,   89.6, -999.0
06-01-2023, 00:31:11,    259,    2.3,    9.1,   0.00,   0.01, 1008.7,   90.3, -999.0
06-01-2023, 00:31:21,    236,    4.9,    9.1,   0.00,   0.00, 1008.7,   91.2, -999.0
06-01-2023, 00:31:32,    213,    7.3,    9.1,   0.00,   0.01, 1008.7,   90.4, -999.0
06-01-2023, 00:31:41,    198,    6.3,    9.1,   0.00,   0.01, 1008.6,   88.4, -999.0
06-01-2023, 00:31:51,    265,    4.7,    9.1,   0.00,   0.00, 1008.6,   87.5, -999.0
06-01-2023, 00:32:01,    245,    3.7,    9.1,   0.00,   0.01, 1008.5,   86.9, -999.0
06-01-2023, 00:32:11,    217,    4.6,    9.1,   0.00,   0.01, 1008.6,   86.6, -999.0
06-01-2023, 00:32:21,    200,    7.0,    9.1,   0.00,   0.00, 1008.6,   86.3, -999.0
06-01-2023, 00:32:31,    221,    3.4,    9.1,   0.00,   0.01, 1008.6,   85.2, -999.0
06-01-2023, 00:32:41,    242,    2.7,    9.1,   0.00,   0.00, 1008.7,   84.8, -999.0
06-01-2023, 00:32:51,    227,    2.2,    9.1,   0.00,   0.01, 1008.7,   84.6, -999.0
06-01-2023, 00:33:01,    242,    5.9,    9.1,   0.00,   0.00, 1008.7,   84.7, -999.0
06-01-2023, 00:33:11,    180,    2.5,    9.1,   0.00,   0.00, 1008.7,   84.6, -999.0
06-01-2023, 00:33:21,    243,    9.3,    9.2,   0.00,   0.01, 1008.7,   84.7, -999.0
06-01-2023, 00:33:31,    241,    6.6,    9.1,   0.00,   0.00, 1008.7,   84.2, -999.0
06-01-2023, 00:33:41,    176,    8.2,    9.1,   0.00,   0.00, 1008.7,   83.9, -999.0
06-01-2023, 00:33:51,    172,    6.7,    9.2,   0.00,   0.01, 1008.6,   83.5, -999.0
06-01-2023, 00:34:01,    280,    5.0,    9.3,   0.00,   0.00, 1008.7,   83.2, -999.0
06-01-2023, 00:34:11,    151,    4.1,    9.2,   0.00,   0.00, 1008.7,   83.3, -999.0
06-01-2023, 00:34:21,    249,    2.8,    9.2,   0.00,   0.01, 1008.7,   83.6, -999.0
06-01-2023, 00:34:31,    241,    7.0,    9.2,   0.00,   0.00, 1008.7,   83.7, -999.0
06-01-2023, 00:34:41,    223,    4.8,    9.2,   0.00,   0.00, 1008.7,   83.8, -999.0
06-01-2023, 00:34:51,    193,    5.0,    9.2,   0.00,   0.00, 1008.7,   84.0, -999.0
06-01-2023, 00:35:01,    262,    2.9,    9.1,   0.00,   0.01, 1008.7,   84.1, -999.0
06-01-2023, 00:35:11,    209,    7.2,    9.1,   0.00,   0.00, 1008.8,   84.1, -999.0
06-01-2023, 00:35:21,    245,    3.6,    9.1,   0.00,   0.00, 1008.8,   84.2, -999.0
06-01-2023, 00:35:31,    228,    5.1,    9.1,   0.00,   0.00, 1008.8,   84.2, -999.0
06-01-2023, 00:35:41,    256,    7.1,    9.1,   0.00,   0.00, 1008.8,   84.3, -999.0
06-01-2023, 00:35:51,    265,    7.8,    9.1,   0.00,   0.01, 1008.8,   84.4, -999.0
06-01-2023, 00:36:01,    205,    2.9,    9.1,   0.00,   0.00, 1008.8,   84.5, -999.0
06-01-2023, 00:36:11,    204,    2.3,    9.1,   0.00,   0.00, 1008.7,   84.8, -999.0
06-01-2023, 00:36:21,    266,    2.0,    9.1,   0.00,   0.00, 1008.7,   84.9, -999.0
06-01-2023, 00:36:30,    230,    2.8,    9.1,   0.00,   0.00, 1008.7,   85.2, -999.0
06-01-2023, 00:36:41,    258,    4.1,    9.0,   0.00,   0.01, 1008.7,   85.4, -999.0
06-01-2023, 00:36:51,    262,    5.1,    9.0,   0.00,   0.00, 1008.7,   85.4, -999.0
06-01-2023, 00:37:00,    267,    3.6,    9.0,   0.00,   0.00, 1008.7,   85.6, -999.0
06-01-2023, 00:37:10,    261,    0.9,    9.0,   0.00,   0.00, 1008.7,   85.8, -999.0
06-01-2023, 00:37:21,    252,    3.6,    9.0,   0.00,   0.00, 1008.7,   86.2, -999.0
06-01-2023, 00:37:31,    235,    1.3,    9.0,   0.00,   0.01, 1008.6,   86.4, -999.0
06-01-2023, 00:37:40,    242,    0.3,    8.8,   0.00,   0.00, 1008.7,   86.5, -999.0
06-01-2023, 00:37:51,    239,    0.9,    9.0,   0.00,   0.00, 1008.7,   86.8, -999.0
06-01-2023, 00:38:01,    234,    1.4,    9.0,   0.00,   0.00, 1008.7,   87.2, -999.0
06-01-2023, 00:38:10,    234,    0.3,    8.9,   0.00,   0.00, 1008.7,   87.5, -999.0
06-01-2023, 00:38:20,    282,    0.5,    8.8,   0.00,   0.00, 1008.7,   87.7, -999.0
06-01-2023, 00:38:30,    282,    0.8,    8.8,   0.00,   0.00, 1008.7,   88.0, -999.0
06-01-2023, 00:38:41,    241,    1.7,    8.9,   0.00,   0.00, 1008.7,   88.1, -999.0
06-01-2023, 00:38:50,    267,    4.8,    8.9,   0.00,   0.01, 1008.6,   87.9, -999.0
06-01-2023, 00:39:00,    256,    4.9,    8.9,   0.00,   0.00, 1008.7,   87.5, -999.0
06-01-2023, 00:39:11,    225,    5.1,    8.9,   0.00,   0.00, 1008.7,   87.4, -999.0
06-01-2023, 00:39:20,    246,    2.7,    8.9,   0.00,   0.00, 1008.6,   87.2, -999.0
06-01-2023, 00:39:30,    256,    4.7,    8.9,   0.00,   0.00, 1008.7,   87.2, -999.0
06-01-2023, 00:39:40,    265,    7.0,    8.9,   0.00,   0.00, 1008.6,   87.2, -999.0
06-01-2023, 00:39:50,    270,    4.7,    8.9,   0.00,   0.00, 1008.6,   87.0, -999.0
06-01-2023, 00:40:00,    241,    3.2,    8.9,   0.00,   0.00, 1008.7,   87.1, -999.0
06-01-2023, 00:40:10,    238,    1.1,    8.9,   0.00,   0.00, 1008.6,   87.0, -999.0
06-01-2023, 00:40:20,    226,    3.1,    8.9,   0.00,   0.00, 1008.6,   87.6, -999.0
06-01-2023, 00:40:30,    249,    2.4,    8.9,   0.00,   0.00, 1008.6,   87.9, -999.0
06-01-2023, 00:40:40,    258,    1.4,    8.9,   0.00,   0.00, 1008.6,   88.1, -999.0
06-01-2023, 00:40:50,    244,    1.1,    8.9,   0.00,   0.00, 1008.6,   88.4, -999.0
06-01-2023, 00:41:00,    238,    1.8,    8.9,   0.00,   0.00, 1008.7,   88.8, -999.0
06-01-2023, 00:41:10,    265,    3.2,    8.9,   0.00,   0.00, 1008.7,   88.9, -999.0
06-01-2023, 00:41:20,    258,    4.5,    8.7,   0.00,   0.00, 1008.6,   89.0, -999.0
06-01-2023, 00:41:30,    239,    2.0,    8.8,   0.00,   0.00, 1008.6,   87.9, -999.0
06-01-2023, 00:41:40,    170,    1.6,    8.8,   0.00,   0.00, 1008.6,   87.6, -999.0
06-01-2023, 00:41:50,    196,    3.0,    8.9,   0.00,   0.00, 1008.6,   87.8, -999.0
06-01-2023, 00:42:00,    205,    2.1,    8.8,   0.00,   0.00, 1008.6,   87.3, -999.0
06-01-2023, 00:42:10,    251,    0.6,    8.8,   0.00,   0.00, 1008.6,   87.1, -999.0
06-01-2023, 00:42:20,    244,    4.1,    8.7,   0.00,   0.00, 1008.7,   87.5, -999.0
06-01-2023, 00:42:31,    264,    2.5,    8.9,   0.00,   0.00, 1008.7,   87.5, -999.0
06-01-2023, 00:42:40,    280,    1.1,    8.8,   0.00,   0.00, 1008.7,   87.3, -999.0
06-01-2023, 00:42:50,    267,    2.0,    8.8,   0.00,   0.00, 1008.7,   87.6, -999.0
06-01-2023, 00:43:00,    220,    2.2,    8.8,   0.00,   0.00, 1008.7,   87.7, -999.0
06-01-2023, 00:43:10,    235,    1.0,    8.8,   0.00,   0.00, 1008.7,   87.7, -999.0
06-01-2023, 00:43:20,    246,    2.2,    8.8,   0.00,   0.00, 1008.7,   87.2, -999.0
06-01-2023, 00:43:30,    223,    2.1,    8.7,   0.00,   0.00, 1008.8,   87.1, -999.0
06-01-2023, 00:43:40,    256,    4.4,    8.8,   0.00,   0.00, 1008.8,   87.0, -999.0
06-01-2023, 00:43:50,    235,    6.7,    8.7,   0.00,   0.00, 1008.8,   86.6, -999.0
06-01-2023, 00:44:00,    255,    7.1,    8.7,   0.00,   0.00, 1008.8,   85.9, -999.0
06-01-2023, 00:44:10,    261,    4.3,    8.7,   0.00,   0.00, 1008.8,   85.6, -999.0
06-01-2023, 00:44:20,    246,    6.1,    8.8,   0.00,   0.00, 1008.8,   85.4, -999.0
06-01-2023, 00:44:30,    250,    3.6,    8.8,   0.00,   0.00, 1008.8,   85.2, -999.0
06-01-2023, 00:44:39,    288,    2.2,    8.9,   0.00,   0.00, 1008.8,   85.1, -999.0
06-01-2023, 00:44:50,    232,    4.6,    8.9,   0.00,   0.00, 1008.8,   85.1, -999.0
06-01-2023, 00:45:00,    249,    5.6,    8.8,   0.00,   0.00, 1008.8,   85.0, -999.0
06-01-2023, 00:45:10,    249,    4.2,    8.8,   0.00,   0.00, 1008.8,   84.9, -999.0
06-01-2023, 00:45:19,    274,    2.5,    8.8,   0.00,   0.00, 1008.8,   84.9, -999.0
06-01-2023, 00:45:30,    253,    3.4,    8.8,   0.00,   0.01, 1008.8,   85.1, -999.0
06-01-2023, 00:45:40,    230,    3.0,    8.8,   0.00,   0.00, 1008.8,   85.1, -999.0
06-01-2023, 00:45:49,    221,    3.7,    8.8,   0.00,   0.00, 1008.8,   85.1, -999.0
06-01-2023, 00:45:59,    243,    3.6,    8.8,   0.00,   0.00, 1008.8,   85.1, -999.0
06-01-2023, 00:46:10,    239,    4.1,    8.8,   0.00,   0.00, 1008.8,   85.1, -999.0
06-01-2023, 00:46:20,    268,    5.7,    8.8,   0.00,   0.00, 1008.8,   85.3, -999.0
06-01-2023, 00:46:29,    334,    3.3,    8.8,   0.00,   0.00, 1008.8,   85.3, -999.0
06-01-2023, 00:46:39,    229,    1.2,    8.8,   0.00,   0.00, 1008.9,   85.3, -999.0
06-01-2023, 00:46:50,    180,    0.8,    8.8,   0.00,   0.00, 1008.8,   85.5, -999.0